Wind_Speed
29 29 28 28 28 29 29 29 30 30 31 31 32 32 31 31 30 30 30 30 30 30 31 31 32 32 32 32 32 32 32 31 31 31 31 31 30 30 30 29 29 29 28 28 28 28 27 27 26 26 25 25 24 22 20 20 21 23 23 21 19 17 15 15 15 16 15 15 15 16 17 17 16 16 16 18 21 24 26 28 28 27 25 25 25 26
30 30 29 29 29 30 30 30 30 31 31 32 32 32 32 32 31 30 30 30 29 30 30 31 31 32 32 31 31 31 31 30 30 30 29 29 29 28 28 28 27 27 27 27 27 27 26 26 26 25 25 24 23 21 20 20 22 23 23 21 19 18 16 16 16 17 16 16 15 16 17 19 19 19 19 19 20 22 25 27 28 28 27 27 27 27
31 30 30 30 30 30 31 31 31 31 32 32 32 32 32 32 31 30 30 29 29 29 30 30 31 31 31 31 30 30 30 29 29 28 28 27 27 27 26 26 26 26 26 26 26 26 25 25 25 25 25 24 23 21 20 21 22 23 23 22 20 19 18 17 17 17 17 17 17 18 19 19 20 21 22 21 20 21 23 25 27 28 28 28 27 26
31 31 31 30 30 31 31 31 32 32 32 32 32 32 32 31 30 30 29 29 29 29 29 30 30 30 30 30 30 29 29 28 28 27 26 26 25 25 25 24 24 24 24 24 24 24 24 25 25 25 24 24 22 21 21 22 23 24 24 23 22 20 18 18 18 18 19 19 20 20 20 20 21 22 23 23 21 20 21 23 25 26 26 26 25 23
32 32 31 31 31 31 31 32 32 32 32 32 32 32 31 31 30 29 29 28 28 29 29 30 30 30 29 29 29 28 28 27 27 26 25 25 24 24 23 23 23 23 23 23 23 23 24 24 24 24 24 23 22 22 22 23 25 25 25 24 22 20 19 18 18 18 19 20 21 20 20 20 21 23 24 23 21 20 20 21 22 23 23 23 22 20
32 32 32 32 32 32 32 32 32 32 32 32 32 31 31 30 30 29 29 28 28 29 29 29 29 29 29 28 28 27 27 26 26 25 25 24 23 23 22 22 22 22 22 22 22 22 23 23 23 23 23 23 22 22 23 24 25 26 25 23 21 20 19 18 18 18 20 20 20 20 20 20 22 23 24 23 21 20 20 21 22 22 22 21 20 19
33 33 33 33 32 32 32 32 32 32 32 32 32 31 30 30 29 29 29 28 28 28 29 29 29 28 28 28 27 27 26 25 25 24 24 23 23 22 22 21 21 21 21 21 21 22 22 22 22 22 22 22 22 23 23 24 25 24 23 21 19 18 17 17 18 19 20 20 20 19 20 21 23 24 23 22 20 20 20 21 21 21 21 20 19 18
33 33 33 33 33 33 32 32 32 32 32 32 31 31 30 30 29 29 29 28 28 28 28 28 28 28 27 27 27 26 26 25 24 24 23 23 22 22 21 20 20 20 20 21 21 21 22 22 22 22 21 21 22 22 23 23 23 22 20 18 17 16 17 18 19 20 20 20 19 20 20 22 23 23 22 20 20 20 20 20 20 20 20 19 18 18
33 34 34 34 33 33 33 33 32 32 32 32 32 31 31 30 30 29 29 28 28 28 28 28 28 27 27 27 26 26 26 25 24 23 23 22 22 21 20 20 20 20 20 20 21 21 21 21 21 21 21 21 21 22 22 21 20 19 17 16 15 16 17 19 20 20 20 20 20 20 21 22 22 22 20 20 19 20 20 20 20 20 19 19 18 17
34 34 34 34 34 34 34 33 33 32 32 32 32 31 31 30 30 29 29 28 29 29 28 28 28 27 27 27 26 26 25 24 24 23 22 22 22 21 21 20 20 20 20 20 20 21 21 21 21 21 21 21 21 21 20 19 18 16 15 14 15 17 18 20 20 21 21 21 21 22 22 23 22 20 19 19 19 19 20 20 19 19 19 18 18 17
35 35 35 35 35 34 34 34 33 33 32 32 32 31 31 30 30 29 29 28 28 29 29 28 28 27 27 27 26 25 25 24 23 23 22 22 22 21 21 20 20 20 20 20 20 20 20 20 20 20 20 20 20 19 18 17 16 15 14 15 17 18 20 20 21 21 21 22 22 23 23 23 21 20 19 18 19 19 19 19 19 19 18 18 18 18
35 35 35 35 35 35 34 34 34 33 33 32 32 32 31 31 30 30 29 29 29 29 29 29 28 27 27 27 27 26 25 24 23 23 23 22 22 21 21 21 20 20 20 20 20 20 20 20 20 20 19 19 18 18 17 16 15 15 16 17 18 19 20 20 21 21 22 22 23 24 24 23 21 19 18 18 19 19 19 19 19 19 19 18 18 18
35 35 35 35 35 34 34 34 33 33 33 33 32 32 32 31 31 30 30 29 29 29 29 29 28 28 27 27 26 26 25 24 23 23 23 22 22 22 21 21 20 20 20 20 20 20 20 20 20 19 19 18 18 17 17 16 16 16 18 19 19 20 20 20 21 22 22 23 24 25 25 23 21 19 18 18 18 19 19 19 19 19 19 19 18 18
35 35 35 35 34 34 33 33 33 33 33 33 32 32 32 31 31 30 30 30 29 29 28 28 28 28 27 27 27 26 25 24 23 23 23 22 22 22 22 21 20 20 20 20 20 20 20 20 20 19 19 18 18 17 17 17 17 18 19 20 20 20 20 21 21 22 23 24 25 26 26 24 21 19 19 18 18 18 18 19 19 19 19 19 19 19
35 35 34 34 33 33 33 32 32 32 32 32 32 32 32 31 31 30 30 30 29 29 28 28 28 28 27 27 27 26 26 25 24 23 22 22 22 22 22 21 21 20 20 20 20 20 20 20 20 20 19 19 19 18 18 18 19 20 20 20 20 20 21 21 22 22 24 25 26 26 25 23 21 20 19 19 19 18 18 18 19 19 19 19 19 19
35 34 33 33 32 32 32 31 31 31 31 31 31 31 31 31 31 30 29 29 29 29 28 28 28 28 27 27 27 26 26 25 24 23 22 22 22 22 22 21 21 21 21 21 21 21 21 21 21 20 20 20 20 20 20 20 21 21 20 20 20 21 21 21 22 23 24 26 27 26 25 23 21 20 20 19 19 19 18 19 19 19 19 19 20 19
34 33 32 32 31 31 31 31 31 30 31 31 31 30 30 30 30 30 29 29 29 28 28 28 27 27 27 27 27 26 26 25 25 24 23 22 22 22 22 22 21 21 21 21 21 21 21 21 21 21 21 21 21 21 21 21 21 20 20 20 21 21 22 22 23 24 25 26 27 26 24 22 21 20 20 20 19 19 19 19 19 19 19 19 20 20
32 32 31 31 30 30 30 30 30 30 30 30 30 30 30 29 29 29 29 28 28 28 28 27 27 27 27 27 27 26 26 25 24 24 23 23 23 23 23 22 22 21 21 21 21 21 21 21 20 20 20 20 20 20 20 20 20 20 20 21 22 23 23 23 24 25 26 27 27 25 23 22 20 20 20 20 20 19 19 19 19 19 19 19 19 19
31 31 30 30 30 30 30 29 29 30 30 30 29 29 29 29 29 28 28 28 28 28 27 27 27 26 26 26 26 26 26 25 24 24 23 23 23 23 23 22 22 21 21 21 21 21 21 20 20 20 19 19 19 19 19 19 20 21 22 23 24 25 25 25 26 26 27 27 26 25 23 21 21 20 20 20 20 20 20 19 19 19 19 19 19 19
30 30 30 30 30 30 30 29 29 29 30 29 29 29 29 29 29 28 28 28 28 27 27 27 26 26 26 26 26 25 25 24 24 23 23 22 23 23 23 22 22 21 21 21 21 21 21 21 21 21 20 20 20 20 21 22 23 24 25 25 26 26 26 27 27 27 27 26 25 24 22 21 21 21 20 20 20 20 20 19 19 19 19 19 19 19
30 29 29 29 29 29 29 29 29 29 29 29 29 29 29 29 28 28 28 28 27 27 27 26 26 26 26 26 25 25 25 24 23 23 23 22 22 23 23 23 22 21 21 22 22 22 22 22 22 22 23 23 23 23 24 24 25 26 26 26 26 27 27 27 28 27 27 26 25 23 22 21 21 20 20 20 20 20 20 19 19 19 19 19 19 19
29 29 29 29 29 29 29 29 29 28 28 28 28 28 28 28 28 28 28 27 27 27 26 26 26 26 26 25 25 25 25 24 24 23 23 22 22 23 23 23 23 22 22 22 23 23 23 23 24 24 24 24 25 25 25 25 26 26 26 26 26 26 27 27 27 27 26 25 24 23 22 21 21 20 20 20 20 20 20 19 19 19 19 19 19 20
28 28 28 28 28 28 28 28 28 28 28 28 28 28 27 27 27 27 27 26 26 26 26 26 26 26 26 25 25 25 25 25 24 24 23 22 22 22 23 23 23 23 22 22 23 23 23 24 24 25 25 25 25 25 25 25 25 25 25 26 26 26 26 27 27 26 26 25 24 23 22 21 21 20 20 20 20 20 19 19 19 18 18 19 19 20
27 27 27 27 27 27 27 27 27 27 27 27 27 27 27 27 26 26 26 25 25 25 25 25 25 25 25 25 25 25 25 25 25 24 23 22 22 22 23 24 23 23 23 23 23 23 23 24 24 24 25 25 25 25 25 25 25 25 25 25 25 25 26 26 26 25 25 24 23 22 22 21 21 20 20 19 19 19 19 19 19 18 18 19 19 20
26 26 26 26 26 26 26 26 26 26 26 26 26 26 26 26 26 26 25 25 25 25 26 25 25 24 24 25 24 24 25 25 25 24 23 23 22 22 23 23 24 23 23 23 23 23 23 23 24 24 25 25 25 25 25 25 25 25 25 25 25 25 25 25 25 25 24 23 22 22 21 21 21 20 20 19 19 19 19 19 18 18 18 19 19 20
26 25 25 25 25 25 25 25 25 25 25 25 25 25 25 25 25 25 25 25 25 26 26 25 24 24 24 24 24 24 25 25 25 25 24 23 22 22 22 23 23 23 23 23 23 23 23 23 24 24 24 25 25 25 25 25 24 24 24 24 24 24 24 24 24 24 23 22 22 21 21 21 20 20 19 19 19 19 19 18 18 18 19 19 20 20
24 24 24 24 24 23 23 23 24 24 24 24 25 25 25 25 25 25 24 25 25 25 25 24 24 24 23 23 24 24 25 25 25 25 25 23 22 22 22 23 23 23 23 23 23 23 23 23 23 24 24 24 24 24 24 24 24 23 23 23 23 24 24 23 23 22 22 21 21 21 21 20 20 20 19 19 19 19 19 18 18 19 19 19 20 20
23 23 23 23 22 22 23 23 23 23 24 24 24 24 24 24 24 24 24 24 25 25 24 24 24 23 23 22 23 24 25 25 25 25 25 23 22 21 21 22 22 23 23 23 23 23 23 23 23 23 23 23 23 23 23 23 22 22 22 22 23 23 22 22 21 21 20 20 20 20 20 20 20 19 19 19 19 18 18 18 18 19 19 19 20 20
22 22 22 22 22 22 23 23 23 24 24 24 24 24 24 24 23 23 24 24 24 24 24 24 23 23 22 22 23 24 24 25 26 25 24 23 22 21 21 22 22 23 23 23 23 23 22 23 23 23 22 22 22 22 22 22 22 21 21 21 21 21 21 20 20 20 20 20 20 20 20 20 19 19 19 18 18 18 18 18 19 19 19 19 20 20
22 22 22 22 23 23 23 24 24 24 24 24 24 24 24 24 23 23 23 24 23 23 23 23 23 23 22 22 22 23 23 24 25 25 24 23 22 21 21 21 22 23 23 23 23 22 22 22 22 22 22 21 21 21 21 21 21 21 21 20 20 20 20 19 19 19 19 19 19 20 20 19 19 19 19 18 18 18 18 18 18 19 19 19 20 20
22 22 23 23 23 24 24 25 25 25 25 24 24 24 24 24 24 23 24 23 23 23 23 23 23 22 22 22 22 22 22 23 24 25 24 23 23 22 22 22 23 23 23 23 23 23 22 21 21 21 22 21 21 21 21 21 21 20 20 20 19 19 19 19 19 19 19 19 19 19 19 19 19 19 18 18 18 18 18 18 18 19 19 19 20 20
22 23 23 23 24 24 24 25 25 25 25 25 24 24 24 24 24 24 24 23 23 23 22 22 22 22 22 22 22 22 22 23 24 24 25 24 24 23 23 23 23 24 24 24 24 23 23 22 21 21 21 21 21 21 21 20 20 20 20 19 19 19 19 19 19 19 19 19 19 19 19 18 18 18 18 18 18 18 18 18 18 18 19 19 20 20
22 23 23 23 24 24 24 24 24 24 25 25 24 24 24 24 24 24 24 24 23 23 22 22 22 23 23 23 23 23 23 23 24 24 24 24 24 24 24 24 24 24 24 24 24 24 23 22 22 21 21 21 21 21 20 20 20 20 20 19 19 19 19 18 18 18 18 18 18 18 18 18 18 18 18 18 18 18 18 18 18 19 19 19 20 20
23 23 23 23 24 24 24 24 24 24 24 24 24 24 24 24 24 24 24 24 24 23 23 23 23 23 23 23 24 24 24 24 24 25 25 25 25 25 25 24 25 25 25 25 25 25 24 23 23 22 21 21 21 21 20 20 20 20 20 19 19 19 18 18 18 18 18 18 18 18 18 18 18 18 19 19 19 19 19 19 19 19 19 19 20 20
24 24 24 24 24 24 24 24 24 24 24 24 24 24 24 24 24 24 24 24 24 23 23 23 24 24 24 25 25 25 25 25 25 25 26 26 26 26 25 25 25 25 26 26 25 25 25 24 23 23 22 21 21 20 20 21 21 21 20 20 19 19 18 18 18 18 18 18 18 18 18 18 18 19 19 19 19 19 19 19 19 19 19 20 20 20
24 24 24 24 24 24 24 24 24 24 24 24 24 24 24 24 24 24 24 24 24 24 24 24 24 24 25 25 26 26 26 26 27 27 27 27 27 27 27 26 26 26 26 26 26 26 25 25 24 23 22 22 21 20 20 21 21 21 21 20 19 19 18 18 18 18 18 18 18 18 18 19 19 19 19 19 19 19 19 19 19 19 20 20 20 21
25 25 25 24 24 24 25 25 25 25 25 25 25 25 25 25 25 25 25 25 25 25 25 24 24 24 25 25 26 26 27 27 27 28 28 28 28 28 27 27 27 27 27 26 26 26 25 25 24 23 23 22 21 21 20 21 21 21 21 20 19 19 18 19 19 19 19 19 19 19 19 19 19 19 20 20 20 20 20 20 20 20 20 20 21 21
25 25 25 25 25 25 25 25 25 25 25 25 25 25 25 26 26 26 26 26 26 26 26 26 25 25 25 25 26 26 26 27 27 28 28 28 28 28 28 27 27 27 27 26 26 26 25 25 24 23 23 22 22 21 21 20 21 21 21 21 20 19 19 19 19 19 19 19 19 19 19 20 20 20 20 20 20 20 20 20 20 21 21 21 21 21
25 25 25 25 25 25 25 25 25 25 25 25 26 26 26 26 26 26 26 26 26 26 26 26 26 26 26 26 26 26 26 26 27 27 27 27 28 28 27 27 27 27 27 26 26 25 25 25 24 23 23 22 22 21 21 21 21 21 21 21 20 20 19 19 19 19 19 20 20 20 20 20 20 21 21 21 21 21 21 21 21 21 21 21 21 22
25 25 25 25 25 24 25 25 25 25 25 25 26 26 26 27 27 27 27 26 26 26 26 26 26 26 26 26 26 26 26 26 26 26 26 27 27 27 27 27 27 27 26 26 26 25 25 24 24 23 23 23 22 22 21 21 21 21 21 21 21 20 20 20 20 20 20 20 20 20 20 21 21 21 21 21 21 21 21 22 22 22 22 22 22 22
25 25 25 25 25 25 25 25 25 25 25 25 26 26 26 27 27 27 27 26 26 26 26 26 26 26 26 26 26 26 26 26 26 26 26 26 26 26 26 26 26 26 26 25 25 25 25 24 24 24 23 23 22 22 21 21 21 21 21 21 21 21 20 20 20 20 21 21 21 21 21 21 21 21 21 22 22 22 22 22 22 22 22 22 22 22
25 26 25 25 25 25 25 25 25 25 25 26 26 26 27 27 27 27 26 26 26 26 26 25 25 25 25 25 25 25 25 25 25 25 25 25 25 26 26 26 26 25 25 25 25 25 24 24 24 24 23 23 22 22 21 21 21 21 21 22 22 21 21 21 21 21 21 21 21 21 21 21 22 22 22 22 22 22 22 22 23 23 23 23 23 23
26 26 26 25 25 25 25 25 25 26 26 26 26 27 27 27 27 27 26 26 26 26 26 25 25 25 24 25 25 25 25 25 25 25 25 24 25 25 25 25 25 25 25 24 24 24 24 24 24 24 24 23 22 22 21 21 21 22 22 22 22 22 21 22 22 22 22 22 22 22 22 22 22 22 22 22 22 22 22 22 23 23 23 23 23 24
27 27 27 26 26 26 26 26 26 26 26 26 26 27 27 27 27 27 27 26 26 26 25 25 25 25 24 24 24 24 25 25 25 24 24 24 24 24 24 24 24 24 24 24 24 24 24 24 24 24 23 23 22 22 22 22 22 22 22 23 23 22 22 22 23 22 22 22 22 22 22 22 22 22 22 22 22 22 22 22 23 23 24 24 24 24
28 28 27 27 27 26 26 26 26 27 27 27 27 27 27 27 27 27 27 27 26 26 25 25 25 24 24 24 24 24 24 24 25 25 24 24 23 23 23 23 23 24 24 24 24 24 24 24 24 24 23 23 22 22 22 22 22 23 23 23 23 23 23 23 23 23 23 23 23 23 23 23 23 22 22 22 22 22 22 23 23 24 24 24 25 25
29 29 29 28 27 27 27 27 27 27 27 27 27 27 27 27 27 27 27 27 26 26 25 25 24 24 24 24 24 24 23 24 24 25 25 24 24 23 23 23 23 23 23 23 23 23 23 23 23 23 23 23 23 23 23 23 23 23 23 24 23 23 23 23 23 24 24 24 24 24 24 23 23 22 22 22 23 22 22 23 23 24 24 25 25 25
30 30 30 29 29 28 28 28 28 28 28 28 28 27 27 27 27 27 27 27 26 26 25 25 24 24 24 24 24 24 23 23 23 24 24 25 24 24 23 23 23 23 23 23 23 23 23 23 23 23 23 23 23 23 23 24 24 24 24 24 24 24 24 24 24 24 24 24 24 24 24 24 23 23 23 23 23 23 23 23 23 24 25 25 25 25
30 30 30 30 30 29 29 29 29 28 28 28 28 28 28 27 27 27 27 27 26 26 26 25 25 24 24 24 24 24 23 23 23 23 24 24 25 24 24 23 23 23 23 23 23 23 23 23 23 23 23 23 23 23 24 24 24 24 24 24 24 24 24 24 25 25 25 25 25 25 25 24 24 23 23 23 23 23 23 24 24 25 25 25 26 26
30 30 30 31 30 30 30 29 29 29 28 28 28 28 28 27 27 27 27 27 26 26 26 25 25 25 24 25 25 24 24 23 23 23 23 24 24 24 24 24 23 23 23 23 23 23 23 23 23 23 23 23 23 24 24 25 25 25 24 24 24 24 25 25 25 26 25 25 26 26 25 25 25 25 24 24 24 24 24 24 25 25 25 26 26 26
31 30 30 31 31 31 30 30 29 29 29 28 28 28 28 28 27 27 27 27 27 27 26 26 26 25 25 25 25 25 25 24 24 23 23 24 24 24 24 24 24 23 23 23 23 22 22 22 22 23 23 24 24 24 24 25 25 25 25 25 25 25 25 26 26 26 26 26 26 26 26 26 26 26 25 25 25 25 25 25 25 26 26 26 27 27
32 31 31 31 31 31 31 30 30 29 29 29 28 28 28 28 28 28 28 28 28 28 28 27 27 26 26 25 26 25 25 25 24 24 24 24 24 24 24 24 24 24 24 23 23 23 22 22 22 23 24 24 25 24 24 24 25 25 25 25 25 26 26 26 26 27 27 26 26 26 26 26 26 26 26 25 25 25 25 25 25 26 27 27 27 28
Wind_Direction
297 297 297 297 297 297 297 297 298 297 297 297 297 297 297 296 296 296 296 296 297 297 296 296 296 296 297 297 298 297 297 297 296 296 296 296 296 297 298 298 298 297 297 296 294 293 292 291 289 288 287 285 283 280 279 280 283 285 288 290 291 292 291 289 285 280 278 280 285 288 284 278 274 272 269 264 260 259 259 261 264 266 268 269 271 273
297 297 297 297 297 297 297 297 297 297 297 297 297 297 297 297 298 297 297 297 297 296 296 295 296 296 297 297 297 297 297 297 296 296 296 296 297 297 297 297 297 297 296 294 293 292 291 290 288 286 284 282 280 278 278 280 283 285 288 291 294 294 292 287 283 278 274 273 275 276 272 266 266 272 278 278 271 264 260 259 260 262 264 265 267 269
297 296 296 296 296 296 296 296 296 296 296 296 296 296 297 297 297 297 297 297 296 296 295 295 295 296 297 297 297 297 297 297 296 296 296 296 297 297 297 297 296 296 294 293 292 291 290 289 287 285 283 280 278 277 277 279 281 284 288 293 295 295 291 286 282 277 273 270 270 271 271 269 270 275 282 285 281 272 263 259 258 259 260 261 263 265
296 295 295 295 295 295 295 295 295 295 295 295 295 295 296 296 296 296 296 296 295 295 295 295 295 296 297 297 298 298 297 297 297 297 297 297 297 297 297 297 296 295 294 293 292 291 290 288 287 285 283 280 277 275 275 277 279 283 289 293 294 292 288 283 280 277 274 272 271 271 273 275 278 281 284 285 283 276 268 263 260 259 259 259 261 263
294 294 294 294 294 294 294 294 294 294 294 294 294 295 295 295 295 295 295 295 295 295 295 295 296 296 297 298 298 298 298 298 298 298 298 298 298 298 298 297 296 294 293 292 291 290 289 288 286 285 283 280 277 274 274 275 278 283 288 291 290 288 284 281 278 276 275 274 273 274 275 277 281 284 285 285 280 274 268 265 262 261 260 260 261 263
292 292 293 292 292 293 293 293 293 293 293 293 293 293 293 294 294 294 294 294 295 295 295 295 296 297 297 298 298 298 298 298 299 299 299 300 300 299 299 298 296 294 293 291 290 289 288 287 286 285 283 281 278 276 275 276 279 283 286 287 286 284 281 280 278 277 276 275 275 275 276 279 283 286 287 284 277 270 266 264 263 262 261 261 262 262
290 291 291 291 291 291 292 292 292 292 292 292 292 292 293 293 293 293 293 294 294 295 295 296 296 297 298 298 298 298 298 299 299 299 300 300 300 300 299 298 297 295 293 291 290 289 288 287 286 285 284 282 280 278 278 279 281 283 285 284 283 282 281 281 280 278 277 277 277 277 278 281 285 287 286 282 274 267 264 263 262 262 261 261 260 260
289 289 290 290 291 291 292 292 292 292 292 292 292 292 292 292 292 293 293 294 294 295 295 296 297 297 298 298 298 298 299 299 299 299 300 300 300 300 299 298 296 295 293 292 291 290 289 288 287 286 285 284 282 281 281 281 282 283 282 281 282 282 283 282 281 279 278 278 277 278 280 283 286 287 284 278 271 266 263 263 262 262 260 260 259 258
289 289 290 291 291 292 292 292 292 292 291 291 291 291 291 291 291 292 293 293 294 295 295 296 297 297 297 297 298 298 298 299 299 299 299 299 299 299 298 297 296 295 293 293 292 291 290 290 288 287 286 284 283 282 282 282 282 281 280 281 282 283 282 281 280 280 279 279 278 279 282 284 286 284 280 274 268 265 263 263 262 261 260 259 258 257
290 290 291 291 292 292 292 292 292 291 291 290 290 290 290 290 290 291 292 293 293 294 294 295 296 297 297 297 297 297 298 298 298 297 297 298 298 298 298 297 296 296 295 294 293 292 291 290 289 288 286 285 284 283 282 281 280 279 280 282 282 281 279 278 279 280 280 280 280 282 284 285 283 280 274 269 266 264 263 263 262 261 259 258 257 256
291 291 292 292 292 292 292 292 292 291 291 290 290 290 290 289 289 290 290 291 292 293 293 294 295 296 296 296 296 296 296 296 296 296 296 296 296 297 297 297 297 296 296 295 294 293 292 290 289 287 286 285 284 282 281 279 278 278 279 280 278 277 276 277 279 280 281 281 282 284 285 284 280 274 268 265 263 262 262 262 261 259 258 256 255 254
291 291 292 292 292 292 292 292 291 291 290 290 289 289 289 289 289 289 290 290 291 291 292 293 294 294 295 295 296 295 295 294 294 294 294 294 295 295 296 296 296 295 295 294 293 292 291 289 288 287 286 284 283 281 279 277 276 277 277 276 274 274 275 277 279 280 281 282 283 285 285 283 277 270 263 260 260 260 260 260 259 257 256 255 254 253
291 291 291 292 292 292 291 291 291 291 290 290 289 289 289 289 289 289 289 289 289 289 291 292 293 293 293 294 294 294 293 292 292 292 292 293 294 294 294 294 294 294 293 292 291 290 289 288 287 286 285 283 281 279 277 276 276 275 274 272 272 273 275 278 279 280 281 282 284 285 285 282 275 266 260 257 257 258 258 257 256 255 254 253 253 252
291 291 291 292 292 291 291 291 290 290 290 290 289 289 289 289 289 289 288 288 287 288 289 290 292 292 292 293 293 292 292 291 291 291 291 291 292 293 293 293 293 292 292 291 290 289 288 287 286 285 283 281 279 277 276 276 275 273 271 270 272 274 277 278 278 279 281 283 285 285 285 280 273 264 258 257 257 257 256 254 253 253 252 251 251 250
291 291 292 292 292 291 291 291 290 290 289 289 289 289 289 289 288 288 287 287 287 288 288 289 290 290 290 290 291 291 291 290 289 289 290 290 291 291 292 291 291 291 290 289 288 286 285 284 283 282 281 279 278 277 276 275 272 270 269 271 274 277 278 278 279 280 282 284 285 285 283 278 271 263 258 257 257 257 255 253 252 251 250 249 249 248
291 292 292 292 292 291 291 291 290 289 289 289 288 288 288 288 288 288 287 287 287 287 288 288 289 289 289 288 288 289 289 289 289 289 289 289 290 290 290 289 289 288 288 286 285 283 282 281 280 280 279 279 278 277 275 272 269 268 270 273 277 279 280 280 281 282 284 285 285 284 281 275 267 261 258 258 259 258 255 253 251 250 249 248 247 246
291 292 292 291 291 291 290 290 290 289 289 288 288 288 288 288 288 288 288 287 287 288 288 288 288 289 289 289 288 288 288 288 289 289 289 289 289 288 288 287 287 286 286 285 283 282 281 281 281 281 281 281 280 277 273 269 267 268 272 276 279 281 281 282 282 283 284 285 285 282 278 271 263 259 258 259 260 258 256 254 252 250 249 247 245 244
291 291 291 291 290 290 289 289 289 289 288 288 288 288 288 288 288 288 287 287 288 288 288 288 288 288 289 288 288 288 289 288 289 289 289 288 288 287 287 286 286 285 285 284 283 282 281 281 282 283 283 283 280 276 271 268 267 269 274 278 280 281 281 281 282 283 284 284 283 280 274 266 260 257 258 259 259 258 256 254 252 250 248 246 244 241
290 290 290 290 289 289 288 288 288 288 288 287 287 288 288 287 287 287 287 287 287 287 288 288 288 288 287 287 287 288 289 288 288 288 288 287 287 287 286 286 285 285 285 284 283 281 281 281 281 282 282 281 279 275 272 269 270 272 275 278 280 280 280 280 280 281 282 282 280 276 270 262 257 256 258 259 259 258 256 254 252 250 247 245 242 239
289 289 289 288 288 288 287 287 287 287 287 287 287 287 287 287 287 287 287 287 287 287 287 287 287 287 287 287 287 287 288 288 287 287 287 286 286 286 286 285 284 284 284 283 281 280 279 278 278 278 278 278 277 275 273 273 273 275 276 278 278 278 278 278 279 279 280 279 277 272 265 259 256 256 257 258 258 257 255 254 252 249 246 243 240 237
287 287 287 287 287 286 286 286 286 286 286 286 286 286 286 286 287 287 286 286 286 287 287 287 286 286 287 287 287 286 286 286 285 285 285 285 285 285 285 285 284 284 283 282 281 279 278 277 276 276 275 275 275 274 274 274 275 276 276 277 277 277 277 277 278 278 278 276 273 268 261 257 255 256 257 257 256 255 254 252 250 247 244 241 238 234
286 285 285 285 285 285 285 285 286 285 286 286 286 286 286 286 286 285 285 285 285 286 286 285 285 286 287 286 285 285 285 284 283 283 283 283 283 283 284 284 283 283 283 282 281 279 278 277 276 275 274 274 274 274 274 275 275 276 276 276 275 275 275 276 276 276 275 273 269 264 259 255 255 256 256 256 255 254 252 251 248 245 242 239 235 232
284 284 284 284 284 284 284 285 285 285 285 285 285 285 285 285 284 284 284 284 284 285 285 285 285 285 285 285 284 283 283 282 282 282 282 281 281 282 283 283 283 283 282 281 280 279 278 277 276 275 275 275 275 275 275 275 275 275 275 275 275 274 274 274 274 273 272 269 265 261 257 255 255 256 256 255 253 252 250 249 246 243 240 236 233 230
283 283 283 283 283 283 284 284 285 285 285 285 285 285 285 284 284 284 284 285 285 284 284 284 284 284 284 283 282 281 281 281 281 281 281 280 280 280 282 283 283 283 282 281 280 279 278 278 277 277 276 276 276 276 276 276 276 276 275 275 275 274 274 273 272 270 268 265 261 258 255 255 255 255 255 253 251 250 248 246 243 240 237 234 231 229
282 282 283 283 283 284 284 284 285 285 285 285 285 285 285 285 285 285 286 286 286 285 285 284 284 284 283 282 281 280 280 280 280 280 280 280 280 280 282 283 283 283 282 281 280 279 279 278 278 278 278 279 279 279 278 278 277 277 276 276 275 274 273 271 269 267 264 261 258 256 255 255 255 255 253 251 249 247 245 243 241 238 235 232 229 228
282 282 283 283 284 284 285 285 285 285 285 285 286 286 286 286 286 286 286 286 286 285 285 285 285 284 283 282 280 279 279 279 279 279 279 280 280 281 282 282 282 282 282 281 281 280 280 280 280 280 281 281 281 281 281 280 279 278 277 276 275 273 271 269 267 264 261 258 255 254 254 254 254 253 252 249 247 245 243 241 238 235 233 230 228 227
283 283 284 285 285 286 286 286 287 287 287 287 287 287 287 287 287 287 287 286 285 285 285 285 285 284 282 281 280 278 278 278 279 279 280 281 282 283 283 282 282 282 282 281 281 281 281 281 281 282 282 283 283 283 282 282 281 279 277 276 274 272 269 266 264 261 258 256 254 253 253 253 253 252 249 247 245 243 241 238 236 234 231 229 228 227
285 285 286 287 287 288 288 288 288 289 289 289 290 290 289 288 288 287 286 285 284 284 284 284 283 282 280 279 278 278 278 278 278 279 279 281 282 283 282 282 282 281 281 281 281 281 282 282 282 282 283 283 284 283 283 282 281 279 277 274 272 270 267 265 262 259 257 255 253 253 253 252 251 249 247 245 243 241 239 237 235 232 230 229 228 227
287 287 288 288 289 290 290 290 290 291 291 292 292 292 291 290 288 287 286 285 284 283 283 282 281 280 279 277 277 277 277 278 278 279 279 281 281 281 281 281 281 281 281 281 281 282 282 283 283 283 283 283 283 282 282 281 280 278 276 274 271 269 267 264 261 258 256 254 253 252 252 251 249 247 245 243 241 239 237 236 234 232 230 229 228 228
289 289 290 290 290 291 291 291 292 292 292 293 293 293 293 291 289 288 286 285 284 283 282 282 281 280 278 277 276 275 276 277 278 279 280 280 280 280 280 279 280 280 280 281 281 281 282 282 282 282 282 281 281 280 280 279 278 277 275 273 271 269 266 263 261 258 256 254 253 252 250 249 247 245 243 242 240 238 237 235 233 232 231 230 229 229
290 290 291 291 292 292 292 292 293 293 293 293 293 293 293 292 291 290 289 288 287 285 284 283 281 280 278 277 276 274 275 275 277 278 279 280 280 279 278 278 279 279 280 280 281 281 280 280 280 280 280 279 278 278 277 277 277 275 274 272 270 267 265 262 260 258 256 254 252 250 249 247 246 244 242 241 239 238 236 235 233 232 231 231 231 231
290 291 291 291 292 292 293 293 293 294 294 294 293 293 293 293 292 292 291 290 289 287 286 284 282 280 278 277 276 274 273 274 275 276 277 278 279 278 278 278 278 279 279 280 280 280 279 278 277 277 277 277 276 276 276 275 275 273 272 270 268 265 263 261 259 257 255 253 251 249 247 246 244 243 242 241 239 238 237 236 234 233 233 232 232 232
290 290 290 291 291 292 292 293 293 294 294 294 294 293 293 293 293 292 292 292 290 288 285 283 281 279 278 277 276 274 274 273 273 274 275 277 278 278 278 278 278 279 279 279 279 279 279 278 276 274 274 274 274 274 274 273 273 271 270 268 266 264 262 260 257 255 253 251 249 247 246 244 243 242 242 241 240 239 238 237 236 235 234 234 234 234
290 290 290 290 290 290 291 292 292 293 293 293 293 293 293 292 292 292 292 292 291 289 286 282 280 279 278 277 276 275 274 274 273 274 274 276 277 277 278 278 279 279 279 279 279 279 278 277 276 274 273 272 272 272 272 271 270 269 268 266 265 263 260 258 256 254 252 249 248 246 245 244 243 243 243 242 242 241 240 239 238 237 236 236 236 236
291 290 290 290 290 290 290 290 290 291 291 291 291 291 291 291 290 290 290 290 290 289 287 285 282 280 278 277 276 275 274 274 274 273 274 275 276 276 277 278 278 279 279 279 278 278 277 276 275 274 272 271 270 269 269 269 268 267 266 264 263 261 259 257 255 252 250 248 247 246 245 244 244 244 244 243 243 242 242 241 240 239 238 238 238 238
291 291 291 290 290 290 289 289 289 289 289 289 289 289 289 289 288 288 288 288 288 288 287 286 284 282 280 278 277 276 275 274 273 273 273 274 274 275 277 277 278 278 278 278 277 277 276 275 274 273 272 270 269 267 266 266 266 265 264 262 261 259 257 255 253 251 250 248 247 246 245 245 245 245 245 245 245 244 244 243 242 241 241 240 240 240
291 291 291 291 290 290 290 289 289 288 288 288 287 287 287 286 286 286 286 286 286 286 286 286 285 283 282 280 278 277 276 274 273 273 273 273 273 274 276 277 277 277 277 277 276 275 274 273 272 272 271 270 268 266 264 263 264 263 263 261 259 257 255 253 251 250 249 248 247 246 246 246 246 246 246 246 246 246 245 245 244 243 243 242 241 241
291 291 291 291 291 291 290 290 289 288 288 287 287 286 285 285 285 284 284 284 284 285 285 285 285 284 283 281 279 278 276 275 274 273 273 273 273 274 275 276 276 277 277 276 275 274 273 272 271 270 269 268 267 265 263 261 261 261 261 259 258 255 253 251 250 249 248 248 247 247 247 247 247 247 247 247 247 247 246 246 245 245 244 243 243 242
291 291 291 291 291 291 290 290 289 288 288 287 287 286 285 285 284 284 284 284 284 285 285 285 285 285 284 283 281 279 278 276 275 274 274 273 273 273 274 275 276 276 276 275 274 273 271 270 269 268 267 266 265 264 262 261 259 259 258 258 256 254 251 250 249 248 248 248 247 247 247 248 248 248 248 248 248 248 247 247 246 246 245 244 243 243
291 291 291 291 291 290 290 289 288 288 287 287 286 285 285 285 284 284 284 285 285 285 286 286 286 285 285 284 283 281 280 278 277 276 275 274 274 274 274 275 276 276 275 275 273 272 270 269 268 267 266 265 264 263 262 260 258 257 256 256 255 253 251 249 248 248 248 247 247 247 248 248 248 248 248 248 248 248 248 247 247 247 246 245 244 243
290 290 290 290 290 289 289 288 287 287 286 286 285 285 284 284 285 285 285 286 286 286 286 286 286 285 285 285 284 282 281 280 279 278 277 276 276 275 275 276 276 275 275 274 273 271 270 268 267 266 265 264 263 262 261 259 257 256 255 254 253 252 250 249 248 247 247 247 248 248 248 248 248 249 249 249 248 248 248 248 248 247 247 246 245 244
289 289 289 289 289 288 287 287 286 286 285 285 284 284 284 284 285 285 286 286 286 286 286 286 285 285 284 284 283 283 282 281 281 280 279 279 278 278 277 277 276 275 274 273 272 271 269 268 266 265 264 263 262 261 260 258 257 255 254 253 252 251 250 249 248 247 247 248 248 248 248 248 249 249 249 249 249 249 249 249 249 249 248 247 246 245
289 289 288 288 287 287 286 285 284 284 283 283 283 284 284 284 285 285 286 286 286 286 287 287 286 286 285 285 284 284 283 283 282 282 281 281 280 279 279 278 277 276 274 273 272 270 269 268 266 265 264 263 262 261 260 258 256 254 253 252 251 250 250 249 249 248 248 248 248 248 249 249 249 249 249 249 250 250 250 250 250 250 249 248 246 245
289 288 288 287 286 285 284 283 282 281 281 281 282 282 283 284 284 285 285 286 286 287 287 288 288 288 288 287 286 285 285 285 284 284 283 282 281 280 280 278 277 276 275 273 271 270 269 267 266 265 264 263 262 261 260 257 255 254 252 251 250 249 249 249 249 250 249 249 249 249 249 249 249 249 249 250 250 251 251 251 251 251 250 249 247 246
289 288 287 286 285 283 282 280 280 279 279 280 280 281 281 282 283 284 284 285 286 287 287 288 289 289 288 288 287 287 286 286 286 286 285 284 283 281 280 279 277 276 275 273 272 270 269 267 266 265 264 263 262 260 259 257 255 253 252 251 250 249 248 249 249 250 250 250 250 249 249 249 249 250 250 250 251 251 251 252 252 252 251 250 248 247
289 288 287 285 283 282 280 279 278 278 278 278 278 279 280 280 281 282 283 284 285 286 287 287 288 288 288 287 287 287 287 286 286 286 286 286 285 283 281 280 278 276 275 273 272 270 269 267 266 265 264 263 261 260 258 256 255 253 251 251 250 249 249 249 249 250 250 250 250 250 250 250 250 250 251 251 251 252 252 252 253 253 252 251 250 248
288 288 286 285 283 281 279 278 278 277 277 277 277 278 278 279 279 280 282 283 284 285 286 287 287 287 287 287 286 286 286 285 285 285 286 286 285 285 283 281 279 277 275 273 272 270 269 267 266 265 264 262 261 259 258 256 254 253 252 251 250 249 249 249 249 250 250 250 250 251 251 251 251 252 252 252 253 253 253 253 254 254 253 252 251 249
287 287 285 284 282 280 279 278 277 277 277 276 277 277 278 278 279 279 280 281 283 284 285 286 286 286 286 286 286 286 285 285 284 284 284 285 285 285 284 282 280 278 276 274 272 271 269 267 266 265 263 262 260 259 257 256 255 253 252 251 251 250 250 250 250 250 250 250 251 251 252 252 252 253 253 253 254 254 254 254 254 254 254 253 252 250
286 285 284 282 281 279 278 277 277 277 276 276 277 277 277 278 278 279 279 280 281 282 284 284 285 285 285 285 286 286 285 285 284 284 283 283 283 284 283 283 281 279 277 275 273 272 270 268 267 265 264 262 260 258 257 256 256 255 253 252 252 251 251 251 251 251 251 251 252 253 253 254 254 254 254 254 254 254 254 254 254 253 253 253 252 250
285 284 282 281 279 278 277 277 277 276 277 277 277 277 277 278 278 278 279 279 280 281 282 282 283 283 283 284 284 284 285 284 284 283 283 282 282 282 282 282 281 279 278 276 274 272 271 270 268 267 265 262 260 258 257 257 257 256 255 254 253 252 252 252 252 252 252 252 253 254 255 255 255 256 256 255 255 254 254 254 253 253 252 252 251 250
285 284 282 280 278 277 277 277 276 277 277 277 277 277 277 278 278 278 278 279 279 279 280 280 281 281 281 281 282 282 283 283 282 282 282 281 280 280 280 280 280 279 278 276 275 273 271 270 269 268 267 264 262 260 258 258 258 257 256 256 255 254 253 253 253 253 254 254 254 255 256 257 257 257 257 256 255 254 254 253 252 252 251 251 250 249
Height
3113 3113 3113 3113 3112 3112 3111 3111 3110 3109 3108 3107 3107 3106 3106 3106 3105 3105 3104 3103 3102 3101 3100 3099 3098 3098 3097 3096 3096 3095 3095 3095 3094 3093 3093 3092 3091 3091 3090 3090 3089 3088 3087 3086 3086 3085 3085 3085 3085 3085 3085 3085 3085 3085 3085 3085 3085 3086 3086 3085 3085 3085 3085 3085 3086 3087 3088 3088 3088 3088 3088 3088 3087 3087 3087 3087 3087 3086 3086 3086 3085 3085 3086 3086 3086 3086
3111 3111 3111 3110 3110 3109 3109 3108 3108 3107 3106 3105 3105 3104 3103 3103 3102 3102 3101 3101 3100 3099 3098 3097 3096 3095 3095 3094 3094 3093 3093 3092 3092 3091 3090 3090 3090 3089 3088 3088 3087 3086 3085 3085 3084 3083 3083 3083 3083 3083 3083 3083 3083 3083 3083 3084 3084 3084 3084 3084 3084 3083 3084 3084 3085 3085 3086 3086 3087 3087 3087 3087 3086 3086 3085 3085 3085 3085 3085 3085 3085 3085 3085 3085 3085 3085
3109 3108 3108 3108 3108 3107 3106 3106 3105 3105 3104 3103 3102 3102 3101 3100 3100 3100 3099 3098 3098 3097 3096 3095 3094 3093 3093 3092 3092 3091 3091 3090 3090 3089 3089 3088 3088 3087 3086 3085 3085 3084 3083 3082 3082 3081 3081 3081 3081 3081 3081 3081 3081 3081 3082 3082 3082 3083 3082 3082 3082 3082 3082 3082 3083 3084 3084 3085 3085 3085 3085 3085 3085 3085 3084 3084 3084 3083 3083 3083 3083 3083 3083 3084 3084 3084
3106 3106 3106 3106 3105 3105 3104 3104 3103 3102 3102 3101 3100 3100 3099 3099 3098 3097 3097 3096 3095 3095 3094 3093 3092 3091 3090 3090 3090 3089 3089 3088 3088 3087 3087 3086 3086 3085 3085 3084 3083 3082 3081 3080 3080 3080 3079 3079 3079 3079 3079 3079 3079 3080 3080 3080 3080 3081 3081 3080 3080 3080 3080 3081 3081 3082 3082 3083 3083 3083 3083 3084 3084 3083 3083 3082 3082 3081 3081 3081 3081 3081 3082 3082 3082 3083
3104 3104 3103 3103 3103 3103 3102 3101 3100 3100 3099 3099 3098 3097 3097 3096 3096 3095 3095 3094 3093 3092 3091 3091 3090 3089 3089 3088 3087 3087 3086 3086 3085 3085 3085 3085 3084 3083 3083 3082 3081 3080 3080 3079 3078 3078 3077 3077 3077 3077 3077 3077 3077 3078 3078 3078 3079 3079 3079 3079 3079 3079 3079 3079 3080 3080 3080 3081 3081 3081 3081 3081 3081 3081 3081 3080 3080 3080 3080 3080 3080 3080 3080 3080 3081 3081
3102 3101 3101 3101 3100 3100 3100 3099 3098 3097 3097 3096 3096 3095 3095 3094 3094 3093 3092 3092 3091 3090 3089 3089 3088 3087 3086 3086 3085 3085 3084 3084 3083 3083 3082 3082 3082 3081 3080 3080 3079 3079 3078 3077 3076 3076 3076 3075 3075 3075 3075 3075 3075 3076 3076 3076 3077 3077 3077 3077 3077 3077 3077 3078 3078 3079 3079 3079 3079 3079 3079 3079 3079 3079 3079 3078 3078 3078 3078 3078 3078 3078 3079 3079 3079 3080
3100 3099 3099 3098 3098 3098 3098 3097 3096 3095 3095 3094 3093 3093 3092 3092 3091 3091 3090 3090 3089 3088 3087 3086 3085 3085 3084 3084 3083 3083 3082 3082 3081 3081 3080 3080 3080 3079 3079 3078 3077 3077 3076 3075 3075 3075 3074 3074 3074 3074 3074 3074 3074 3074 3074 3075 3075 3075 3075 3075 3075 3075 3076 3076 3077 3077 3077 3077 3077 3077 3077 3077 3077 3077 3077 3076 3076 3076 3076 3076 3077 3077 3077 3078 3078 3078
3097 3096 3096 3096 3095 3095 3095 3094 3094 3093 3092 3091 3091 3090 3090 3090 3089 3089 3088 3087 3086 3086 3085 3084 3084 3083 3082 3082 3081 3080 3080 3080 3080 3079 3078 3078 3078 3077 3077 3076 3076 3075 3075 3074 3073 3073 3073 3072 3072 3072 3072 3072 3072 3072 3073 3073 3073 3073 3073 3074 3074 3074 3074 3075 3075 3075 3075 3076 3076 3076 3075 3075 3075 3075 3075 3075 3074 3074 3075 3075 3075 3075 3076 3076 3076 3077
3095 3094 3093 3093 3093 3092 3092 3091 3091 3090 3090 3089 3088 3088 3087 3087 3087 3086 3086 3085 3084 3084 3083 3082 3081 3081 3080 3080 3079 3079 3078 3078 3077 3077 3076 3076 3076 3075 3075 3075 3074 3073 3073 3072 3072 3071 3071 3071 3070 3070 3070 3070 3070 3071 3071 3071 3071 3071 3072 3072 3072 3073 3073 3073 3074 3074 3074 3074 3074 3074 3074 3074 3073 3073 3073 3073 3073 3073 3073 3073 3074 3074 3075 3075 3075 3075
3092 3091 3090 3090 3090 3090 3089 3088 3088 3087 3087 3086 3086 3085 3085 3085 3084 3084 3084 3083 3082 3081 3080 3080 3080 3079 3078 3078 3077 3077 3076 3076 3075 3075 3075 3074 3074 3073 3073 3073 3072 3072 3071 3070 3070 3070 3070 3069 3069 3069 3069 3069 3069 3069 3069 3069 3070 3070 3070 3070 3071 3071 3072 3072 3072 3072 3072 3072 3072 3072 3072 3072 3072 3071 3071 3071 3071 3071 3071 3072 3072 3073 3073 3073 3074 3074
3089 3088 3088 3087 3087 3086 3086 3085 3085 3085 3084 3084 3083 3083 3083 3082 3082 3082 3081 3081 3080 3079 3078 3078 3077 3077 3076 3075 3075 3075 3075 3074 3074 3073 3073 3072 3072 3072 3071 3071 3070 3070 3069 3069 3069 3068 3068 3068 3068 3068 3067 3067 3067 3068 3068 3068 3068 3068 3069 3069 3070 3070 3070 3070 3070 3070 3070 3070 3070 3070 3070 3070 3070 3070 3070 3070 3070 3070 3070 3070 3071 3071 3071 3072 3072 3073
3086 3086 3085 3085 3084 3084 3083 3083 3082 3082 3081 3081 3080 3080 3080 3080 3080 3080 3079 3079 3078 3077 3076 3075 3075 3075 3075 3074 3073 3073 3072 3072 3072 3071 3071 3070 3070 3070 3069 3069 3069 3068 3068 3067 3067 3067 3066 3066 3066 3066 3066 3066 3066 3066 3066 3066 3066 3067 3067 3068 3068 3069 3069 3069 3069 3069 3069 3069 3069 3069 3069 3069 3068 3068 3068 3068 3068 3069 3069 3069 3069 3070 3070 3070 3071 3071
3084 3083 3083 3082 3081 3081 3080 3080 3080 3079 3078 3078 3078 3078 3077 3077 3077 3077 3076 3076 3076 3075 3074 3073 3073 3072 3072 3072 3071 3070 3070 3070 3070 3070 3069 3068 3068 3068 3067 3067 3067 3067 3066 3066 3065 3065 3065 3065 3065 3065 3065 3065 3065 3065 3065 3065 3065 3065 3066 3066 3067 3067 3067 3067 3067 3067 3067 3067 3067 3067 3067 3066 3066 3066 3066 3067 3067 3067 3067 3068 3068 3068 3069 3069 3070 3070
3081 3080 3080 3080 3079 3078 3078 3077 3077 3077 3076 3075 3075 3075 3075 3075 3075 3074 3074 3074 3073 3073 3072 3071 3071 3070 3070 3070 3069 3069 3068 3068 3068 3068 3067 3067 3066 3066 3065 3065 3065 3065 3065 3065 3064 3064 3064 3064 3064 3064 3064 3064 3064 3064 3064 3064 3064 3065 3065 3065 3065 3065 3065 3065 3065 3065 3065 3065 3065 3065 3065 3065 3065 3065 3065 3065 3065 3065 3066 3066 3067 3067 3067 3068 3068 3069
3079 3078 3077 3077 3076 3076 3075 3075 3075 3074 3074 3073 3073 3072 3072 3072 3072 3072 3072 3071 3070 3070 3070 3070 3069 3068 3068 3068 3067 3066 3066 3066 3066 3066 3065 3065 3065 3064 3064 3064 3063 3063 3063 3063 3063 3062 3062 3062 3062 3062 3062 3063 3063 3063 3063 3063 3063 3063 3064 3064 3064 3064 3064 3064 3064 3064 3064 3064 3063 3063 3063 3063 3063 3063 3063 3064 3064 3064 3064 3065 3065 3065 3066 3066 3067 3067
3076 3075 3075 3074 3074 3073 3073 3072 3072 3071 3071 3071 3070 3070 3070 3070 3069 3069 3069 3069 3068 3068 3068 3067 3067 3066 3066 3065 3065 3065 3064 3064 3063 3064 3064 3063 3063 3062 3062 3062 3062 3062 3062 3061 3061 3061 3061 3060 3060 3060 3061 3061 3061 3061 3061 3061 3062 3062 3062 3062 3062 3062 3062 3062 3062 3062 3062 3061 3061 3061 3061 3061 3061 3061 3062 3062 3062 3062 3063 3063 3064 3064 3065 3065 3065 3066
3073 3073 3072 3072 3071 3071 3070 3070 3070 3069 3069 3068 3068 3068 3068 3067 3067 3067 3066 3066 3066 3065 3065 3065 3065 3064 3064 3063 3063 3063 3063 3062 3061 3061 3062 3061 3061 3061 3060 3060 3060 3060 3060 3060 3060 3059 3059 3059 3059 3059 3059 3059 3060 3060 3060 3060 3060 3060 3060 3061 3061 3061 3060 3060 3060 3060 3060 3060 3060 3059 3059 3059 3060 3060 3060 3060 3060 3061 3061 3061 3062 3062 3063 3063 3064 3065
3071 3070 3070 3070 3069 3069 3068 3068 3067 3067 3066 3066 3066 3065 3065 3065 3065 3065 3064 3064 3064 3063 3063 3063 3063 3062 3062 3061 3060 3060 3060 3060 3060 3059 3059 3059 3059 3059 3059 3059 3058 3058 3058 3058 3058 3058 3057 3057 3057 3057 3057 3058 3058 3058 3058 3059 3059 3059 3059 3059 3059 3059 3059 3059 3058 3058 3058 3058 3058 3057 3057 3057 3058 3058 3058 3059 3059 3059 3059 3060 3060 3061 3061 3062 3062 3063
3068 3068 3068 3067 3066 3066 3066 3065 3065 3065 3064 3064 3064 3064 3063 3063 3063 3062 3062 3062 3061 3061 3061 3060 3060 3060 3060 3059 3058 3058 3058 3058 3057 3057 3057 3057 3057 3057 3057 3056 3056 3057 3057 3056 3056 3056 3056 3055 3056 3056 3056 3056 3056 3056 3057 3057 3057 3057 3057 3057 3057 3057 3057 3056 3056 3056 3056 3056 3055 3055 3055 3056 3056 3056 3057 3057 3057 3057 3058 3058 3059 3059 3060 3060 3061 3061
3066 3065 3065 3065 3064 3064 3063 3063 3063 3063 3062 3062 3062 3061 3061 3060 3060 3060 3060 3060 3059 3059 3059 3059 3058 3058 3057 3057 3057 3056 3056 3056 3055 3055 3055 3055 3055 3055 3055 3055 3055 3055 3055 3055 3055 3054 3054 3054 3054 3054 3054 3054 3055 3055 3055 3055 3055 3055 3055 3055 3055 3055 3055 3054 3054 3054 3054 3054 3054 3054 3054 3054 3055 3055 3055 3055 3055 3055 3056 3056 3057 3057 3058 3059 3059 3060
3064 3063 3063 3062 3062 3061 3061 3061 3061 3061 3060 3060 3060 3059 3059 3059 3058 3058 3058 3057 3057 3056 3056 3056 3056 3055 3055 3055 3055 3055 3054 3054 3054 3053 3053 3053 3053 3053 3053 3053 3053 3053 3053 3053 3053 3052 3052 3052 3052 3052 3052 3052 3052 3053 3053 3053 3053 3053 3053 3053 3053 3053 3052 3052 3052 3051 3051 3051 3051 3052 3052 3052 3053 3053 3053 3054 3054 3054 3054 3055 3055 3056 3056 3057 3058 3059
3061 3061 3060 3060 3060 3060 3059 3059 3059 3059 3058 3058 3057 3057 3057 3056 3056 3056 3055 3055 3055 3055 3054 3054 3054 3053 3053 3053 3053 3052 3052 3052 3052 3051 3051 3052 3052 3051 3051 3051 3051 3051 3051 3051 3051 3050 3050 3050 3050 3050 3050 3050 3050 3050 3050 3050 3050 3050 3050 3050 3050 3050 3050 3050 3050 3049 3049 3049 3050 3050 3050 3050 3051 3051 3051 3052 3052 3052 3053 3053 3054 3054 3055 3055 3056 3057
3059 3059 3059 3059 3058 3058 3057 3057 3057 3056 3056 3056 3055 3055 3055 3054 3054 3054 3053 3053 3053 3052 3052 3052 3052 3052 3051 3051 3051 3050 3050 3050 3050 3050 3050 3050 3050 3050 3049 3049 3049 3049 3049 3049 3049 3049 3048 3048 3048 3048 3048 3048 3048 3048 3048 3048 3048 3048 3048 3048 3048 3048 3048 3047 3047 3047 3047 3047 3047 3048 3048 3049 3049 3050 3050 3050 3050 3051 3051 3051 3052 3053 3053 3054 3055 3056
3057 3057 3056 3056 3056 3056 3055 3055 3055 3054 3054 3053 3053 3053 3052 3052 3052 3051 3051 3051 3051 3050 3050 3050 3050 3050 3049 3049 3049 3048 3048 3048 3048 3048 3048 3048 3048 3048 3048 3047 3047 3047 3047 3047 3047 3047 3046 3046 3046 3045 3045 3045 3045 3045 3045 3045 3045 3045 3045 3045 3045 3045 3045 3045 3045 3045 3045 3045 3045 3046 3046 3047 3047 3048 3048 3048 3049 3049 3050 3050 3050 3051 3052 3053 3054 3054
3055 3055 3054 3054 3054 3053 3053 3053 3052 3052 3051 3051 3051 3050 3050 3050 3049 3049 3049 3049 3048 3048 3047 3047 3047 3047 3047 3047 3046 3046 3046 3046 3046 3046 3046 3046 3046 3046 3046 3046 3045 3045 3045 3045 3045 3045 3045 3045 3044 3044 3044 3044 3043 3043 3043 3043 3043 3043 3043 3043 3043 3043 3043 3043 3043 3043 3043 3043 3044 3044 3045 3045 3046 3046 3046 3047 3047 3048 3048 3049 3049 3050 3050 3051 3052 3053
3053 3052 3052 3052 3051 3051 3051 3050 3050 3050 3049 3049 3049 3048 3048 3047 3047 3047 3046 3046 3046 3045 3045 3045 3045 3045 3045 3045 3044 3044 3044 3044 3044 3044 3044 3044 3045 3045 3045 3044 3044 3043 3043 3043 3043 3043 3043 3043 3042 3042 3042 3041 3041 3041 3041 3041 3041 3041 3040 3040 3040 3041 3041 3041 3041 3041 3041 3041 3042 3043 3043 3044 3044 3045 3045 3045 3046 3046 3047 3047 3048 3048 3049 3050 3051 3052
3050 3050 3050 3050 3049 3049 3049 3048 3048 3048 3047 3047 3046 3046 3045 3045 3045 3044 3044 3044 3044 3043 3043 3043 3043 3043 3043 3043 3042 3042 3042 3042 3041 3041 3042 3042 3042 3043 3043 3042 3041 3041 3041 3041 3041 3041 3041 3041 3041 3040 3040 3040 3039 3039 3039 3039 3039 3039 3039 3039 3039 3039 3039 3039 3039 3039 3040 3040 3040 3041 3042 3042 3043 3043 3043 3044 3044 3045 3045 3046 3046 3047 3048 3049 3050 3050
3048 3048 3048 3047 3047 3047 3047 3046 3046 3045 3045 3045 3044 3044 3043 3043 3043 3042 3042 3041 3041 3041 3041 3041 3041 3041 3041 3041 3041 3040 3040 3040 3040 3040 3040 3040 3040 3041 3041 3040 3040 3039 3039 3039 3039 3039 3039 3039 3039 3039 3038 3038 3038 3037 3037 3037 3037 3037 3037 3037 3037 3037 3037 3037 3037 3037 3038 3038 3039 3040 3040 3040 3041 3041 3042 3042 3043 3043 3044 3045 3045 3046 3047 3047 3048 3049
3046 3046 3046 3045 3045 3045 3045 3044 3044 3043 3043 3043 3042 3041 3041 3041 3040 3040 3040 3039 3039 3039 3039 3039 3039 3039 3039 3039 3039 3039 3038 3038 3037 3037 3038 3038 3039 3039 3039 3038 3037 3037 3037 3037 3037 3037 3037 3037 3037 3037 3036 3036 3036 3035 3035 3035 3035 3035 3035 3035 3035 3035 3035 3035 3035 3036 3036 3037 3037 3038 3038 3039 3040 3040 3040 3041 3041 3042 3043 3043 3044 3045 3045 3046 3047 3048
3044 3044 3044 3043 3043 3043 3042 3042 3041 3041 3041 3040 3040 3040 3039 3039 3038 3038 3037 3037 3037 3037 3037 3037 3037 3037 3037 3037 3037 3037 3037 3036 3036 3035 3035 3036 3036 3037 3037 3036 3035 3035 3035 3035 3035 3035 3035 3035 3035 3035 3035 3035 3034 3034 3033 3033 3033 3033 3033 3033 3033 3034 3034 3034 3034 3035 3035 3035 3036 3036 3037 3038 3038 3039 3039 3040 3040 3041 3042 3042 3043 3044 3044 3045 3046 3046
3043 3042 3042 3041 3041 3040 3040 3040 3039 3039 3038 3038 3038 3037 3037 3036 3036 3036 3035 3035 3035 3035 3035 3035 3035 3035 3035 3035 3035 3035 3035 3035 3034 3034 3034 3034 3034 3035 3035 3034 3034 3033 3033 3033 3033 3033 3034 3034 3034 3033 3033 3033 3033 3032 3032 3032 3031 3031 3032 3032 3032 3032 3032 3032 3033 3033 3034 3034 3035 3035 3035 3036 3037 3037 3038 3039 3039 3040 3040 3041 3042 3042 3043 3044 3045 3045
3041 3040 3040 3040 3039 3039 3038 3038 3037 3037 3036 3036 3035 3035 3035 3034 3034 3034 3033 3033 3033 3033 3033 3033 3033 3033 3033 3033 3033 3033 3033 3033 3033 3032 3032 3032 3032 3032 3032 3032 3031 3031 3031 3031 3031 3031 3031 3032 3032 3032 3031 3031 3031 3031 3030 3030 3030 3030 3030 3030 3030 3031 3031 3031 3031 3032 3032 3033 3033 3034 3034 3035 3035 3036 3037 3037 3038 3039 3039 3040 3041 3041 3042 3042 3043 3044
3039 3039 3038 3038 3037 3037 3036 3036 3035 3035 3034 3034 3033 3033 3033 3032 3032 3032 3031 3031 3031 3031 3031 3031 3031 3031 3031 3031 3031 3031 3031 3031 3031 3030 3030 3030 3030 3030 3030 3030 3030 3029 3029 3029 3029 3029 3029 3029 3030 3030 3030 3029 3029 3029 3029 3029 3029 3029 3029 3029 3029 3029 3029 3030 3030 3030 3031 3031 3032 3032 3033 3034 3034 3035 3035 3036 3037 3038 3038 3039 3040 3040 3041 3041 3042 3043
3037 3037 3036 3036 3036 3035 3035 3034 3034 3033 3032 3032 3031 3031 3031 3030 3030 3030 3030 3030 3029 3029 3029 3029 3029 3029 3029 3029 3029 3029 3029 3029 3029 3028 3028 3028 3028 3028 3028 3028 3027 3027 3027 3027 3027 3027 3027 3027 3027 3027 3028 3028 3028 3028 3027 3027 3027 3027 3027 3027 3027 3028 3028 3028 3029 3029 3029 3030 3030 3031 3032 3032 3033 3034 3034 3035 3035 3036 3037 3038 3038 3039 3040 3040 3040 3041
3035 3035 3035 3034 3034 3033 3033 3032 3032 3031 3030 3030 3030 3029 3029 3029 3028 3028 3028 3028 3028 3027 3027 3027 3027 3027 3027 3027 3027 3027 3027 3027 3027 3026 3026 3026 3026 3026 3025 3025 3025 3025 3025 3025 3025 3025 3025 3025 3025 3025 3025 3026 3026 3026 3026 3025 3025 3025 3025 3026 3026 3026 3026 3027 3027 3027 3028 3029 3029 3030 3030 3031 3031 3032 3033 3034 3034 3035 3035 3036 3037 3038 3038 3039 3039 3040
3033 3033 3032 3032 3032 3031 3030 3030 3030 3029 3029 3028 3028 3028 3027 3027 3026 3026 3026 3026 3026 3025 3025 3025 3025 3025 3025 3025 3025 3025 3025 3025 3024 3024 3024 3024 3024 3024 3024 3023 3023 3023 3023 3023 3023 3023 3023 3023 3023 3023 3024 3024 3024 3024 3024 3024 3024 3024 3024 3024 3025 3025 3025 3025 3026 3026 3026 3027 3028 3028 3029 3030 3030 3031 3031 3032 3033 3034 3034 3035 3035 3036 3037 3037 3038 3038
3031 3030 3030 3030 3030 3029 3029 3028 3028 3027 3027 3026 3026 3026 3025 3025 3025 3025 3024 3024 3024 3024 3024 3023 3023 3023 3023 3023 3023 3023 3022 3022 3022 3022 3022 3021 3021 3021 3021 3021 3021 3021 3021 3020 3020 3020 3020 3021 3021 3021 3021 3022 3022 3022 3022 3022 3022 3022 3022 3023 3023 3023 3024 3024 3024 3025 3025 3026 3026 3027 3027 3028 3029 3029 3030 3031 3031 3032 3033 3033 3034 3035 3035 3036 3036 3037
3029 3028 3028 3028 3027 3027 3026 3026 3025 3025 3025 3025 3024 3024 3024 3023 3023 3023 3022 3022 3022 3022 3021 3021 3021 3021 3021 3021 3020 3020 3020 3020 3020 3020 3019 3019 3019 3019 3020 3019 3019 3019 3019 3019 3018 3018 3019 3019 3019 3019 3020 3020 3020 3020 3020 3020 3020 3020 3020 3021 3021 3022 3022 3023 3023 3023 3024 3024 3025 3025 3026 3027 3027 3028 3028 3029 3030 3030 3031 3032 3032 3033 3034 3034 3035 3035
3026 3026 3026 3026 3025 3025 3025 3024 3024 3023 3023 3022 3022 3022 3021 3021 3021 3020 3020 3020 3020 3020 3020 3020 3019 3019 3019 3019 3019 3018 3018 3018 3017 3017 3017 3017 3017 3017 3017 3017 3017 3017 3017 3016 3016 3016 3016 3017 3017 3017 3017 3018 3018 3018 3019 3019 3019 3019 3019 3019 3020 3020 3021 3021 3021 3022 3022 3023 3024 3024 3025 3025 3025 3026 3027 3027 3028 3029 3029 3030 3030 3031 3032 3032 3033 3034
3024 3024 3024 3024 3024 3023 3023 3022 3022 3021 3021 3020 3020 3020 3019 3019 3019 3018 3018 3018 3018 3018 3018 3017 3017 3017 3017 3017 3016 3016 3016 3015 3015 3015 3015 3015 3015 3015 3015 3015 3015 3015 3015 3015 3015 3015 3015 3015 3015 3015 3015 3016 3016 3016 3017 3017 3017 3017 3017 3017 3018 3018 3019 3020 3020 3020 3021 3021 3022 3022 3023 3023 3024 3025 3025 3026 3026 3027 3027 3028 3029 3029 3030 3030 3031 3032
3022 3022 3022 3022 3022 3021 3021 3020 3020 3019 3019 3019 3018 3018 3017 3017 3017 3016 3016 3016 3016 3016 3015 3015 3015 3015 3015 3015 3014 3014 3014 3013 3013 3013 3013 3013 3013 3013 3013 3013 3013 3013 3013 3012 3012 3012 3013 3013 3013 3013 3014 3014 3014 3015 3015 3015 3015 3015 3015 3016 3016 3017 3017 3018 3018 3019 3019 3020 3020 3021 3021 3022 3022 3023 3023 3024 3025 3025 3025 3026 3027 3027 3028 3029 3030 3030
3020 3020 3020 3020 3020 3019 3019 3018 3018 3017 3017 3016 3016 3016 3015 3015 3015 3015 3014 3014 3014 3014 3014 3013 3013 3013 3013 3012 3012 3012 3011 3011 3011 3011 3011 3011 3011 3010 3010 3010 3010 3010 3010 3010 3010 3010 3010 3011 3011 3011 3011 3012 3012 3013 3013 3013 3013 3014 3014 3014 3015 3015 3015 3016 3016 3017 3017 3018 3019 3019 3020 3020 3020 3021 3022 3022 3023 3023 3024 3024 3025 3026 3026 3027 3028 3029
3018 3018 3018 3018 3018 3017 3017 3016 3016 3015 3015 3015 3014 3014 3013 3013 3013 3012 3012 3012 3012 3012 3012 3011 3011 3011 3011 3010 3010 3010 3009 3009 3009 3009 3009 3009 3009 3009 3008 3008 3008 3008 3008 3009 3009 3009 3009 3009 3009 3009 3010 3010 3010 3011 3011 3011 3011 3012 3012 3012 3013 3013 3014 3014 3015 3015 3016 3016 3017 3017 3018 3018 3019 3019 3020 3020 3021 3021 3022 3023 3023 3024 3025 3025 3026 3026
3016 3016 3016 3016 3016 3015 3015 3014 3014 3014 3013 3013 3012 3012 3011 3011 3011 3010 3010 3010 3010 3010 3010 3010 3009 3009 3009 3008 3008 3008 3007 3007 3007 3006 3006 3007 3007 3007 3006 3006 3006 3006 3006 3007 3007 3007 3007 3007 3007 3007 3008 3008 3009 3009 3009 3010 3010 3010 3010 3010 3011 3011 3012 3012 3013 3013 3014 3015 3015 3015 3016 3016 3017 3017 3018 3019 3019 3020 3020 3021 3021 3022 3023 3023 3024 3025
3014 3014 3014 3014 3013 3013 3013 3012 3012 3011 3011 3010 3010 3010 3010 3009 3009 3009 3008 3008 3008 3008 3008 3008 3007 3007 3007 3006 3006 3006 3005 3005 3005 3004 3004 3005 3005 3005 3005 3005 3005 3005 3005 3005 3005 3005 3005 3005 3005 3005 3006 3006 3007 3007 3007 3007 3007 3008 3008 3008 3009 3010 3010 3010 3011 3011 3012 3012 3013 3013 3014 3014 3015 3016 3016 3017 3018 3018 3019 3019 3020 3020 3021 3021 3022 3022
3011 3011 3011 3011 3011 3010 3010 3010 3010 3009 3009 3009 3008 3008 3008 3007 3007 3007 3006 3006 3006 3006 3006 3006 3005 3005 3005 3005 3004 3004 3004 3003 3003 3002 3002 3002 3002 3002 3003 3003 3003 3003 3003 3003 3003 3003 3003 3003 3003 3003 3004 3004 3005 3005 3005 3005 3005 3006 3006 3006 3007 3008 3008 3009 3009 3010 3010 3010 3011 3011 3012 3012 3013 3014 3015 3015 3015 3016 3017 3017 3018 3019 3019 3020 3020 3020
3009 3008 3008 3008 3008 3008 3008 3007 3007 3007 3007 3006 3006 3006 3006 3005 3005 3005 3005 3004 3004 3004 3004 3004 3004 3003 3003 3003 3002 3002 3002 3002 3001 3001 3000 3000 3000 3000 3000 3001 3001 3001 3001 3001 3001 3001 3001 3001 3001 3002 3002 3002 3002 3003 3003 3003 3003 3004 3004 3005 3005 3006 3006 3007 3007 3008 3008 3008 3009 3009 3010 3010 3011 3012 3012 3013 3014 3014 3015 3015 3016 3016 3017 3017 3018 3018
3006 3006 3006 3005 3005 3005 3005 3005 3005 3005 3004 3004 3004 3004 3004 3004 3003 3003 3003 3002 3002 3002 3002 3002 3002 3001 3001 3001 3000 3000 3000 3000 3000 3000 2999 2998 2998 2998 2998 2999 2999 2999 2999 2999 2999 2999 2999 2999 3000 3000 3000 3000 3000 3000 3000 3000 3001 3001 3002 3003 3003 3004 3005 3005 3005 3005 3006 3006 3007 3007 3008 3008 3009 3010 3010 3011 3011 3012 3013 3013 3014 3014 3015 3015 3016 3016
3004 3004 3003 3003 3003 3002 3002 3002 3002 3002 3002 3002 3002 3001 3001 3001 3001 3001 3001 3000 3000 3000 3000 3000 3000 3000 2999 2999 2999 2998 2998 2998 2998 2998 2997 2997 2996 2996 2996 2996 2997 2997 2997 2997 2997 2997 2997 2997 2998 2998 2998 2998 2998 2998 2998 2999 2999 3000 3000 3001 3001 3002 3002 3003 3003 3004 3004 3005 3005 3005 3005 3006 3007 3007 3008 3009 3009 3010 3010 3011 3011 3012 3012 3013 3013 3014
3002 3002 3001 3000 3000 3000 3000 3000 3000 3000 3000 3000 2999 2999 2999 2999 2999 2999 2999 2998 2998 2998 2998 2998 2998 2998 2997 2997 2997 2996 2996 2996 2996 2996 2995 2995 2995 2995 2994 2994 2995 2995 2995 2995 2995 2995 2995 2996 2996 2996 2995 2996 2996 2996 2996 2997 2997 2998 2998 2999 3000 3000 3000 3000 3001 3001 3002 3002 3003 3003 3004 3004 3005 3005 3006 3006 3007 3008 3008 3009 3009 3010 3010 3010 3011 3011
2999 2999 2999 2998 2998 2997 2997 2997 2997 2997 2997 2997 2997 2997 2997 2997 2996 2996 2996 2996 2996 2996 2995 2995 2995 2995 2995 2995 2995 2994 2994 2994 2994 2994 2994 2994 2993 2993 2993 2992 2992 2992 2992 2993 2993 2993 2994 2994 2994 2994 2994 2993 2994 2994 2995 2995 2995 2996 2996 2997 2997 2998 2998 2999 2999 2999 3000 3000 3001 3001 3001 3002 3002 3003 3003 3004 3005 3005 3006 3006 3007 3007 3007 3007 3008 3008